HB9TVK-13 Weather Reports


Display with metric or nautical units.
time (UTC)temp
F
wind
direction
speed
MPH
gust
MPH
rain 1hr
in
rain 24hr
in
rain mn
in
humidity
%
barometer
mb
20260506154716 49 203 4.0 11.0 0.00 0.28 0.18 91 1010.1
20260506153717 49 214 5.0 15.0 0.00 0.28 0.18 92 1010.1
20260506152718 49 218 5.0 11.0 0.00 0.29 0.18 92 1010.2
20260506151716 49 218 4.0 9.0 0.00 0.29 0.18 92 1010.1
20260506150716 49 214 5.0 11.0 0.00 0.29 0.18 91 1010.1
20260506145717 49 222 6.0 10.0 0.00 0.29 0.18 92 1010.1
20260506144716 49 216 6.0 12.0 0.00 0.29 0.18 92 1010.1
20260506143717 48 220 5.0 10.0 0.01 0.29 0.18 93 1010.1
20260506142717 48 219 5.0 10.0 0.02 0.29 0.18 94 1010.0
20260506141717 48 204 5.0 9.0 0.02 0.29 0.18 94 1010.0
20260506140715 48 213 5.0 9.0 0.03 0.29 0.18 94 1010.0
20260506135716 47 215 6.0 12.0 0.04 0.29 0.18 94 1010.0
20260506134717 47 206 6.0 14.0 0.05 0.29 0.18 94 1010.0
20260506133717 47 219 6.0 13.0 0.05 0.28 0.17 95 1010.0
20260506132717 47 212 6.0 12.0 0.05 0.28 0.17 95 1010.0
20260506131717 47 217 6.0 11.0 0.05 0.27 0.16 95 1010.0
20260506130718 47 209 7.0 15.0 0.06 0.26 0.15 95 1009.9
20260506125715 47 213 7.0 12.0 0.09 0.25 0.14 96 1009.7
20260506124716 47 204 6.0 15.0 0.10 0.24 0.13 96 1009.6
20260506123716 48 205 8.0 18.0 0.10 0.24 0.13 96 1009.4
20260506122716 48 207 8.0 16.0 0.10 0.23 0.12 95 1009.2
20260506121717 49 204 6.0 13.0 0.09 0.22 0.11 95 1009.0
20260506120717 50 215 9.0 16.0 0.09 0.20 0.09 94 1008.8
20260506115717 52 197 2.0 7.0 0.04 0.16 0.05 94 1008.6
20260506114716 53 229 1.0 3.0 0.02 0.14 0.03 93 1008.5
20260506113716 53 207 2.0 5.0 0.02 0.13 0.02 91 1008.3
20260506112716 54 218 1.0 5.0 0.01 0.13 0.02 91 1008.1
20260506111716 54 227 1.0 4.0 0.02 0.13 0.02 90 1008.2
20260506110717 54 295 3.0 6.0 0.01 0.13 0.01 88 1008.1
20260506105717 54 227 1.0 4.0 0.01 0.13 0.01 86 1008.2
20260506104715 55 268 1.0 3.0 0.01 0.13 0.01 86 1008.2
20260506103716 55 274 2.0 5.0 0.01 0.13 0.01 85 1008.1
20260506102716 55 259 1.0 3.0 0.01 0.13 0.01 88 1008.0
20260506101717 53 291 2.0 4.0 0.00 0.13 0.00 86 1008.0
20260506100716 53 301 1.0 3.0 0.00 0.13 0.00 87 1008.1
20260506095717 53 295 0.0 2.0 0.00 0.13 0.00 87 1008.1
20260506094717 54 228 0.0 1.0 0.00 0.13 0.00 86 1008.2
20260506093716 54 244 0.0 3.0 0.00 0.13 0.00 84 1008.2
20260506092716 54 263 0.0 2.0 0.00 0.13 0.00 87 1008.1
20260506091716 54 266 0.0 3.0 0.00 0.13 0.00 89 1007.9
20260506090716 53 0.0 0.0 0.00 0.13 0.00 89 1007.9
20260506085716 53 0.0 0.0 0.00 0.13 0.00 89 1008.0
20260506084717 53 0.0 0.0 0.00 0.13 0.00 88 1007.9
20260506083717 53 0.0 0.0 0.00 0.13 0.00 88 1007.9
20260506082715 53 0.0 0.0 0.00 0.13 0.00 88 1007.9
20260506081715 53 0.0 0.0 0.00 0.13 0.00 88 1007.9
20260506080716 53 0.0 0.0 0.00 0.13 0.00 89 1007.9
20260506072717 52 0.0 0.0 0.00 0.14 0.00 91 1008.0
20260506071716 53 0.0 0.0 0.00 0.14 0.00 90 1007.8
20260506070715 52 0.0 0.0 0.00 0.14 0.00 90 1007.9
20260506061717 51 0.0 0.0 0.00 0.14 0.00 89 1007.8
20260506060715 51 0.0 0.0 0.00 0.14 0.00 91 1007.7
20260506050717 49 0.0 0.0 0.00 0.14 0.00 92 1008.0
20260506044715 49 0.0 0.0 0.00 0.14 0.00 91 1007.9
20260506043716 49 0.0 0.0 0.00 0.14 0.00 91 1008.0
20260506042716 49 0.0 0.0 0.00 0.14 0.00 91 1008.0
20260506041717 49 0.0 0.0 0.00 0.14 0.00 90 1008.0
20260506040717 49 0.0 0.0 0.00 0.14 0.00 91 1008.1
20260506035718 49 0.0 0.0 0.00 0.14 0.00 91 1008.3
20260506034715 49 0.0 0.0 0.00 0.14 0.00 91 1008.4
20260506033716 49 0.0 0.0 0.00 0.14 0.00 91 1008.5
20260506032716 49 0.0 0.0 0.00 0.14 0.00 91 1008.6
20260506031716 49 0.0 0.0 0.00 0.14 0.00 91 1008.6
20260506030716 50 0.0 0.0 0.00 0.14 0.00 91 1008.7
20260506025717 50 0.0 0.0 0.00 0.14 0.00 91 1008.8
20260506024717 50 0.0 0.0 0.00 0.14 0.00 90 1009.0
20260506023715 50 0.0 0.0 0.00 0.14 0.00 90 1008.9
20260506022716 50 240 0.0 1.0 0.00 0.14 0.00 90 1008.9
20260506021716 50 228 0.0 2.0 0.00 0.14 0.00 90 1009.0
20260506020717 50 0.0 0.0 0.00 0.14 0.00 91 1009.3
20260506015717 50 243 0.0 3.0 0.00 0.14 0.00 90 1009.4
20260506014717 51 192 2.0 6.0 0.00 0.14 0.00 89 1009.5
20260506013718 51 214 2.0 6.0 0.00 0.14 0.00 89 1009.5
20260506012715 51 219 2.0 5.0 0.00 0.14 0.00 90 1009.6
20260506011716 50 215 2.0 4.0 0.00 0.14 0.00 90 1009.7
20260506010716 50 222 1.0 3.0 0.00 0.14 0.00 90 1009.8
20260506005716 50 219 0.0 3.0 0.00 0.14 0.00 90 1009.9
20260506004716 50 164 1.0 4.0 0.00 0.14 0.00 91 1010.0
20260506003717 50 147 0.0 2.0 0.00 0.14 0.00 92 1010.0
20260506002718 50 173 0.0 1.0 0.00 0.14 0.00 92 1010.2
20260506001715 50 154 1.0 7.0 0.00 0.14 0.00 93 1010.4
20260506000716 50 145 0.0 1.0 0.00 0.14 0.00 93 1010.4
20260505235716 50 0.0 0.0 0.00 0.14 0.00 93 1010.3
20260505234717 50 0.0 0.0 0.00 0.14 0.00 92 1010.3
20260505233717 50 182 1.0 4.0 0.00 0.14 0.00 92 1010.3
20260505232718 50 150 0.0 1.0 0.00 0.14 0.00 92 1010.4
20260505231718 51 144 0.0 2.0 0.00 0.14 0.00 91 1010.5
20260505230716 51 165 0.0 1.0 0.00 0.14 0.00 91 1010.7
20260505225716 51 159 0.0 2.0 0.00 0.14 0.00 91 1010.7
20260505224716 51 161 1.0 6.0 0.00 0.14 0.00 90 1010.7
20260505223716 51 0.0 0.0 0.00 0.14 0.00 89 1010.7
20260505222717 52 0.0 0.0 0.00 0.14 0.00 88 1010.7
20260505221717 51 132 0.0 2.0 0.00 0.14 0.00 88 1010.6
20260505220717 51 0.0 0.0 0.00 0.14 0.00 88 1010.8
20260505215715 51 0.0 0.0 0.00 0.14 0.14 88 1010.9
20260505214716 52 0.0 0.0 0.00 0.14 0.14 88 1011.0
20260505213716 52 150 1.0 3.0 0.00 0.14 0.14 88 1011.0
20260505212716 52 147 0.0 1.0 0.00 0.14 0.14 87 1011.1
20260505211716 52 0.0 0.0 0.00 0.14 0.14 87 1011.2
20260505210717 52 0.0 0.0 0.00 0.14 0.14 86 1011.2
20260505205718 52 223 0.0 1.0 0.00 0.14 0.14 85 1011.1
20260505204715 52 192 1.0 3.0 0.00 0.14 0.14 86 1011.1
20260505203716 52 168 0.0 2.0 0.00 0.14 0.14 87 1011.2
20260505202716 52 152 1.0 2.0 0.00 0.14 0.14 88 1011.1
20260505201716 51 147 1.0 4.0 0.00 0.14 0.14 89 1011.0
20260505200716 52 152 1.0 4.0 0.00 0.14 0.14 89 1011.0
20260505195717 52 150 1.0 4.0 0.00 0.14 0.14 89 1010.9
20260505194718 52 153 1.0 6.0 0.00 0.14 0.14 89 1010.9
20260505193715 52 144 1.0 4.0 0.00 0.14 0.14 89 1010.8
20260505192716 52 142 1.0 5.0 0.00 0.14 0.14 89 1010.7
20260505191716 52 150 3.0 7.0 0.00 0.14 0.14 89 1010.6
20260505190716 53 156 2.0 8.0 0.00 0.14 0.14 89 1010.5
20260505185717 53 162 3.0 11.0 0.00 0.14 0.14 90 1010.3
20260505184717 53 168 3.0 8.0 0.00 0.14 0.14 89 1010.3
20260505183717 54 163 3.0 10.0 0.00 0.14 0.14 89 1010.2
20260505182715 54 162 3.0 9.0 0.01 0.14 0.14 89 1010.3
20260505181716 54 161 3.0 10.0 0.01 0.14 0.14 89 1010.3
20260505180716 53 164 4.0 9.0 0.01 0.14 0.14 91 1010.4
20260505175717 53 167 4.0 8.0 0.01 0.14 0.14 92 1010.3
20260505174717 53 157 4.0 10.0 0.01 0.14 0.14 92 1010.4
20260505173718 52 176 3.0 10.0 0.03 0.14 0.14 92 1010.5
20260505172717 52 187 3.0 5.0 0.07 0.13 0.13 93 1010.4
20260505171716 52 206 2.0 10.0 0.08 0.13 0.13 93 1010.2
20260505170716 52 220 2.0 5.0 0.09 0.13 0.13 92 1010.1
20260505165716 52 0.0 0.0 0.09 0.13 0.13 92 1010.2
20260505164717 52 235 0.0 1.0 0.09 0.13 0.13 91 1010.0
20260505163717 52 214 3.0 5.0 0.07 0.11 0.11 90 1010.2
20260505162717 53 219 5.0 10.0 0.03 0.06 0.06 88 1010.6
20260505161717 53 209 6.0 13.0 0.02 0.06 0.06 87 1010.6
20260505160715 53 203 4.0 9.0 0.02 0.05 0.05 86 1010.3